Home > Weather > Kilgore > Past weeks

Flag for USA Past Weather in Kilgore, Texas, USA — Yesterday and Last 2 Weeks

Now
84 °F

Sunny.


Feels Like: 92 °F
Forecast: 75 / 92 °F
Wind: 6 mph from West

Location: Gregg County Airport

Current Time: Jun 27, 2016 at 10:02:20 AM

Latest Report: Jun 27, 2016 at 8:53 AM


Visibility: 10 mi

Pressure: 30.07 "Hg

Humidity: 74%

Dew Point: 75 °F

Location of KilgoreLocation

Past Weather in Kilgore — Graph

°F

Kilgore Temperature Yesterday

Maximum temperature yesterday: 93 °F (at 2:53 PM)
Minimum temperature yesterday: 77 °F (at 3:53 AM)
Average temperature yesterday: 85 °F

High & Low Weather Summary for the Past Weeks

 TemperatureHumidityPressure
High94 °F (Jun 18, 1:53 PM)100% (Jun 13, 3:00 PM)30.21 "Hg (Jun 13, 3:00 PM)
Low70 °F (Jun 19, 4:53 AM)44% (Jun 26, 5:53 PM)29.78 "Hg (Jun 14, 5:53 PM)
Average82 °F78%29.99 "Hg
* Reported Jun 12 9:00 AM — Jun 27 8:53 AM, Kilgore, Weather by CustomWeather, © 2016

Note: Actual official high and low records may vary slightly from our data, if they occured in-between our weather recording intervals... More about our weather records

Advertising

Kilgore Weather History for the Previous 24 Hours

Scroll right to see more
 ConditionsComfort  
Time TempWeatherWind HumidityBarometerVisibility
8:53 AM
Mon, Jun 27
84 °FSunny.6 mph74%30.07 "Hg10 mi
7:53 AM79 °FSunny.No wind84%30.08 "Hg10 mi
6:53 AM76 °FClear.No wind94%30.06 "Hg10 mi
5:53 AM76 °FClear.3 mph94%30.05 "Hg10 mi
4:53 AM75 °FClear.No wind96%30.05 "Hg10 mi
3:53 AM77 °FClear.No wind90%30.04 "Hg10 mi
2:53 AM76 °FClear.5 mph94%30.04 "Hg10 mi
1:53 AM77 °FClear.No wind90%30.04 "Hg10 mi
12:53 AM78 °FClear.No wind90%30.06 "Hg10 mi
11:53 PM
Sun, Jun 26
79 °FClear.No wind84%30.07 "Hg10 mi
10:53 PM80 °FClear.5 mph81%30.04 "Hg10 mi
9:53 PM85 °FClear.5 mph70%30.03 "Hg10 mi
8:53 PM86 °FSunny.5 mph70%30.01 "Hg10 mi
7:53 PM88 °FSunny.6 mph61%29.99 "Hg10 mi
6:53 PM91 °FPassing clouds.7 mph54%29.98 "Hg10 mi
5:53 PM93 °FSunny.9 mph44%29.99 "Hg10 mi
4:53 PM93 °FScattered clouds.10 mph52%30.02 "Hg10 mi
3:53 PM92 °FPassing clouds.6 mph52%30.03 "Hg10 mi
2:53 PM93 °FScattered clouds.8 mph52%30.05 "Hg10 mi
1:53 PM92 °FScattered clouds.6 mph52%30.08 "Hg10 mi
12:53 PM91 °FPartly sunny.8 mph57%30.09 "Hg10 mi
11:53 AM90 °FScattered clouds.6 mph59%30.12 "Hg10 mi
10:53 AM88 °FScattered clouds.6 mph67%30.13 "Hg10 mi
Weather by CustomWeather, © 2016

See weather overviewHow to use our weather pages